Regional Weather Roundup
Issued by NWS Cleveland, OH

Home | Current Version | Previous Version | Graphics & Text | Print | Product List | Glossary On
Versions: 1 2 3 4 5 6 7 8 9 10 11 12 13 14 15 16 17 18 19 20 21 22 23 24 25 26 27 28 29 30 31 32 33 34 35 36 37 38 39 40 41 42 43 44 45 46 47 48 49 50
000
ASUS41 KCLE 010202
RWRCLE
OHIO REGIONAL WEATHER ROUNDUP
NATIONAL WEATHER SERVICE CLEVELAND, OH
1000 PM EDT THU JUL 31 2014

NOTE: "FAIR" INDICATES FEW OR NO CLOUDS BELOW 12,000 FEET WITH NO
SIGNIFICANT WEATHER AND/OR OBSTRUCTIONS TO VISIBILITY.

OHZ001>008-015>018-024>027-034-035-043-044-010300-
   NORTHWEST OHIO

CITY           SKY/WX    TMP DP  RH WIND       PRES   REMARKS
DEFIANCE       MOCLDY    66  62  87 CALM      30.07R
FINDLAY        PTCLDY    66  60  81 S6        30.06R
TOLEDO EXPRESS CLEAR     65  61  87 CALM      30.06R
TOLEDO EXEC    CLEAR     72  59  63 SW5       30.06R
LIMA           CLEAR     67  60  78 S5        30.08R
$$

OHZ009>014-019>023-028>033-038-089-010300-
   NORTHEAST OHIO

CITY           SKY/WX    TMP DP  RH WIND       PRES   REMARKS
CLE-HOPKINS    CLEAR     68  58  70 S7        30.10R
CLE-LAKEFRONT  CLEAR     74  56  53 S6        30.06R
CUY CO. ARPT   PTCLDY    70  57  64 S6        30.09R
LORAIN-ELYRIA  CLEAR     70  60  70 S3        30.08R
ASHTABULA      CLEAR     60  57  89 CALM      30.10R
AKRON-CANTON   CLEAR     70  55  59 S5        30.11R
WOOSTER        CLEAR     64  57  78 CALM      30.11R
MANSFIELD      CLEAR     66  58  75 S3        30.11R
YOUNGSTOWN     PTCLDY    61  57  87 S5        30.11R
$$

OHZ042-051>053-060>062-070>072-077>081-010300-
  SOUTHWEST OHIO

CITY           SKY/WX    TMP DP  RH WIND       PRES   REMARKS
CINC-COVINGTON PTCLDY    72  61  68 CALM      30.09R
CINC-LUNKEN    PTCLDY    70  62  76 CALM      30.09R
HAMILTON       LGT RAIN  66  63  90 CALM      30.09R
DAYTON         CLEAR     73  59  61 SW3       30.10R
WRIGHT-PAT AFB CLEAR     69  61  77 CALM      30.09R
DAYTON GENERAL PTCLDY    71  60  68 CALM      30.09R
WILMINGTON     CLOUDY    70  62  76 SE3       30.10R
$$

OHZ036-037-039>041-045>050-054>059-063>069-073>076-082>088-010300-
  CENTRAL AND SOUTHEAST OHIO

CITY           SKY/WX    TMP DP  RH WIND       PRES   REMARKS
COLUMBUS       PTCLDY    76  59  55 CALM      30.09R
OSU AIRPORT    CLEAR     74  59  59 S3        30.09R
BOLTON FIELD   CLEAR     67  64  90 CALM      30.10R
RICKENBACK AFB CLEAR     71  61  70 CALM      30.08S
NEWARK         CLEAR     65  63  93 CALM      30.10R
MARION         CLEAR     67  59  75 S3        30.09R
LANCASTER      CLEAR     65  62  90 CALM      30.10R
ZANESVILLE     PTCLDY    70  63  78 CALM      30.11R
NEW PHILLY     CLEAR     63  60  90 CALM      30.11R
$$


USA.gov is the U.S. government's official web portal to all federal, state and local government web resources and services.